sat.trackr.live / text

‹ back to catalog

STARLINK-31190

NORAD 58897 · 2024-020X

PAYLOAD ACTIVE UNKNOWN

§ Identity

Operator
Country
US
Launch date
2024-01-29
Launch site
AFWTR
Launch vehicle
Mass (kg)
RCS (m²)

Purposes: comms

External: N2YO · Heavens-Above · Gunter

§ Orbital elements

Epoch: 2026-05-24T22:04:55.793280Z

Period
94.01 min
Inclination
53.1604°
Eccentricity
0.0001228
Mean motion
15.31701043 rev/d
Perigee alt
469.9 km
Apogee alt
471.6 km
Semi-major
6,848.9 km
B*
3.5056e-5
RAAN
328.2429°
Arg perigee
82.4372°
Mean anomaly
277.6769°
Rev number
12,974

§ Raw data

STARLINK-311901 58897U 24020X   26144.92009020  .00000723  00000+0  35056-4 0  99982 58897  53.1604 328.2429 0001228  82.4372 277.6769 15.31701043129749

JSON: /api/v1/satellites/58897 · /tle

For live sub-satellite position, see the globe view (requires WebGL).

§ Visibility from observer

Set your observer location to see the next 7 days of passes ≥ 10°. The values pass through the URL so the page stays shareable.

No JS? Fill the form by hand. The geolocation button needs JavaScript.